Overview Statistics Trail Chart Weather Telemetry Raw packets
 

This is the latest recevied weather packets stored in our database for station/object DO1BDB-12. If no packets are shown the sender has not sent any weather packets the latest 10 day(s).

<< 307 308 309 310 311 312 313 >>
Time Temp. Humidity Pressure Rain* Wind** Luminosity Snow
1788183710 27.22° C 46% 100.8 hPa - - - -
1788183644 27.78° C 46% 100.8 hPa - - - -
1788183578 27.78° C 47% 100.8 hPa - - - -
1788183512 26.67° C 48% 100.8 hPa - - - -
1788183447 26.11° C 51% 100.8 hPa - - - -
1788183381 25.56° C 51% 100.8 hPa - - - -
1788183315 25.56° C 52% 100.8 hPa - - - -
1788183249 24.44° C 53% 100.8 hPa - - - -
1788183183 24.44° C 53% 100.8 hPa - - - -
1788183117 23.89° C 54% 100.8 hPa - - - -
1788183051 23.89° C 54% 100.8 hPa - - - -
1788182986 23.89° C 56% 100.8 hPa - - - -
1788182920 23.89° C 55% 100.8 hPa - - - -
1788182854 23.89° C 55% 100.8 hPa - - - -
1788182788 23.89° C 55% 100.8 hPa - - - -
1788182722 23.89° C 55% 100.8 hPa - - - -
1788182656 24.44° C 54% 100.8 hPa - - - -
1788182591 24.44° C 56% 100.8 hPa - - - -
1788182525 24.44° C 55% 100.8 hPa - - - -
1788182459 25° C 56% 100.8 hPa - - - -
1788182393 25° C 54% 100.8 hPa - - - -
1788182327 25.56° C 54% 100.8 hPa - - - -
1788182261 25.56° C 54% 100.8 hPa - - - -
1788182195 25° C 54% 100.8 hPa - - - -
1788182130 25° C 54% 100.8 hPa - - - -

* Rain since midnight (hover to see other rain measurements)
** Current wind speed in m/s (hover to see current wind gust speed)